カタログに戻る

OPS 4682 DEB

運用中PO
NORAD 51504·DEBRIS·🇺🇸 United States

打ち上げ Apr 3, 1965 から Vandenberg Space Force Base

Loading…

次のパス (今後24時間)

TLE

最新Source: Space-Track

元期: Sep 14, 2026, 13:24 UTC

1 51504U 65027GQ  26257.55866891  .00000268  00000-0  89612-3 0  9990
2 51504  90.2406 356.9762 0030106 230.6463 129.1990 12.97537248533280

AllMySatでOPS 4682 DEBをリアルタイム追跡

Download on the App Store